Location: Newark
(51.8900°N, 2.0780°W)
Time: 10:17:40
(UTC+00:00)

Envisat - Pass Details

Date: 24 November 2019
Orbit: 764 x 766 km, 98.1° (Epoch: 06 December)

Event Time Altitude Azimuth Distance (km) Brightness Sun altitude
Rises 06:11:39 0° 22° (NNE) 3,245 6.3 -13.5°
Reaches altitude 10° 06:14:16 10° 33° (NNE) 2,313 5.7 -13.1°
Maximum altitude 06:18:40 29° 93° (E) 1,393 5.2 -12.4°
Drops below altitude 10° 06:23:01 10° 153° (SSE) 2,298 6.2 -11.8°
Sets 06:25:37 0° 164° (SSE) 3,219 6.7 -11.4°
